Regional Weather Roundup
Issued by NWS Charleston, SC

Home | Current Version | Previous Version | Text Only | Print | Product List | Glossary On
Versions: 1 2 3 4 5 6 7 8 9 10 11 12 13 14 15 16 17 18 19 20 21 22 23 24 25 26 27 28 29 30 31 32 33 34 35 36 37 38 39 40 41 42 43 44 45 46 47 48 49 50
000
ASUS42 KCHS 031027
RWRCHS

Regional Weather Roundup
National Weather Service Charleston SC
600 AM EDT TUE AUG 03 2021

NOTE: "fair" indicates few or no clouds below 12,000 feet with no
significant weather and/or obstructions to visibility.

Not all stations are quality controlled. Use data with caution,
especially dewpoint observations.

SCZ027-030-031-034>040-042>050-031100-
...Southeast South Carolina...

CITY           SKY/WX    TMP DP  RH WIND       PRES   REMARKS
N Charleston   MOCLDY    74  71  91 CALM      29.93S
Waterfront Prk   N/A     80  74  82 CALM      29.78S
Mount Pleasant CLOUDY    75  75 100 CALM      29.94R FOG
Johns Island   FAIR      75  73  94 CALM      29.94R
Pinopolis        N/A     75  73  94 SW5       29.86S
Moncks Corner  FAIR      72  72 100 CALM      29.94R
Summerville    PTSUNNY   73  73 100 CALM      29.93S
Beaufort MCAS  MOCLDY    76  73  91 CALM      29.93S
Beaufort Arpt  PTSUNNY   75  72  88 W3        29.93S
Hilton Head Is NOT AVBL
Walterboro     PTSUNNY   72  70  94 CALM      29.96R
Allendale      PTSUNNY   73  73 100 CALM      29.95R

...Southern Midlands and Pee Dee...

CITY           SKY/WX    TMP DP  RH WIND       PRES   REMARKS
Georgetown     FAIR      72  72 100 CALM      29.96R
Kingstree      CLOUDY    73  72  94 CALM      29.95R FOG
Orangeburg     LGT RAIN  73  73 100 W3        29.95S
Barnwell       CLOUDY    73  72  94 CALM      29.96R
Aiken          LGT RAIN  74  72  96 CALM      29.97S
Manning        PTSUNNY   72  72 100 CALM      29.95R
Columbia       CLOUDY    76  71  85 NE7       29.95R
Sumter         LGT RAIN  73  71  94 NE6       29.95R FOG
Florence       CLOUDY    75  71  87 E10       29.96R
Myrtle Beach   MOCLDY    74  74 100 CALM      29.95R
N Myrtle Beach MOCLDY    73  72  96 NE5       29.94R

$$

GAZ063-065-086>088-099>101-113>116-118-119-134>141-150-031100-
...Southeast Georgia...

CITY           SKY/WX    TMP DP  RH WIND       PRES   REMARKS
Savannah Arpt  CLOUDY    74  74 100 CALM      29.94S FOG
Hunter AAF     CLOUDY    75  73  94 CALM      29.91
Fort Stewart   MOCLDY    73  72  99 CALM      29.92S
Statesboro     RAIN      72  70  93 CALM      29.95R
Sylvania       CLOUDY    74  73  96 CALM      29.96R FOG
Claxton        CLOUDY    74  73  96 CALM      29.95S
Millen           N/A     73  72  97 MISG      29.96R
Metter         CLOUDY    72 N/A N/A CALM      29.95R
Reidsville     CLOUDY    72  72  99 NE5       29.94F

...CSRA, Central and far Southeast Georgia...

CITY           SKY/WX    TMP DP  RH WIND       PRES   REMARKS
Thomson        CLOUDY    73  73  99 E3        29.97S FOG
Augusta-Bush   LGT RAIN  75  73  93 W3        29.94S
Augusta-Daniel LGT RAIN  76  73  91 CALM      29.97R FOG
Swainsboro     CLOUDY    72  70  94 CALM      29.97S
Vidalia        CLOUDY    73  72  94 CALM      29.96R
Eastman        CLOUDY    73  71  96 CALM      29.97R
Hazlehurst     NOT AVBL
Alma           CLOUDY    73  73 100 CALM      29.93R
Waycross       CLOUDY    74  73  96 CALM      29.95S
Jesup          PTSUNNY   73  70  88 CALM      29.96R
Baxley         LGT RAIN  72  72 100 CALM      29.94S
Brunswick      CLOUDY    73  73  98 CALM      29.94R
Saint Simons   CLOUDY    77  75  93 SW6       29.93R

$$

SCZ027-028-034-036>038-045-046-048>050-GAZ119-141-031100-
...Lake and Supplemental Coastal Observations...

STATION/POSITION TIME  TEMP    WIND        PRES    WAVE   SWELL
                       AIR SEA DIR/SP/G            HT/PER HT/PER/DIR
                 (UTC) (F)     (DEG/KT/KT) (MB)    (FT/S) (FT/S/D)
Winyah Bay       0945   76     300/  1     1013.0S
Lake Murray      1020   73      20/  2/  5   N/A
Chrlstn Harbor   NOT AVBL
ACE Basin NERRS  0945   75        CALM     1014.0S
Fort Pulaski     0948      85              1014.1S
Sapelo Island    1000   75      50/  2     1013.0

$$

ANZ835-935-AMZ111-154-330-350-352-354-370-450-454-472-031100-
...C-MAN and Buoy Observations...

STATION/POSITION TIME  TEMP    WIND        PRES    WAVE   SWELL
                       AIR SEA DIR/SP/G            HT/PER HT/PER/DIR
                 (UTC) (F)     (DEG/KT/KT) (MB)    (FT/S) (FT/S/D)
Buoy 41004       1010   80 83  300/  4/  6 1013.7
Buoy 41008       0950   80 84  230/ 12/ 14 1012.6R   3/ 5   2/120/ 7
Folly Beach CMAN 1000   77     310/  2/  3 1014.3R
Capers Nearshore NOT AVBL
Capers NS Wave   0948      83                N/A     2/ 5
Fripp Nearshore  1008   79 84  300/  6/ 10 1012.6S


STATION/POSITION TIME  TEMP    WIND        PRES    WAVE   SWELL
                       AIR SEA DIR/SP/G            HT/PER HT/PER/DIR
                 (UTC) (F)     (DEG/KT/KT) (MB)    (FT/S) (FT/S/D)
5E St. Marys GA  0930   79 83                N/A     2/ 4
Frying Pan Buoy  1010   80     120/  4/  6 1013.6
Buoy 41025       1010   76 83   50/  8/ 14 1014.2
Cape Lookout NC  1000   78      20/  7/  7 1014.4R
Buoy 41002       1000   82 83  190/ 19/ 23 1017.2
Buoy 41010       1000   82     160/ 16/ 19 1015.5
St Augustine FL  1000   75 82  210/  5/  6 1014.4R


$$



USA.gov is the U.S. government's official web portal to all federal, state and local government web resources and services.